Terminal Aerodrome Forecast
Issued by NWS

Home | Current Version | Previous Version | Graphics & Text | Print | Product List | Glossary On
Versions: 1 2 3 4 5 6 7 8 9 10 11 12
000
FTUS43 KOAX 040532 AAA
TAFCDR
TAF AMD
KCDR 040532Z 0406/0506 18007KT P6SM BKN100
     FM041500 18010KT P6SM BKN100
     FM042200 15012KT P6SM VCTS SCT050CB BKN250
     FM050300 VRB05KT P6SM SCT100=

USA.gov is the U.S. government's official web portal to all federal, state and local government web resources and services.